Flag for Poland Weather past 2 weeks in Kielce, Poland

Now
34 °F

Passing clouds.


Feels Like: 34 °F
Forecast: 32 / 49 °F
Wind: 1 mph from Northwest

Location: Kielce

Current Time: Apr 18, 2015 at 5:40:44 AM

Latest Report: Apr 18, 2015 at 4:00 AM


Visibility: 19 mi

Pressure: 29.99 "Hg

Humidity: 86%

Dew point: 30 °F

Location of KielceLocation

Historic Weather in Kielce — Graph

°F

Kielce temperature yesterday

Maximum temperature yesterday: 53 °F (at 4:00 PM)
Minimum temperature yesterday: 32 °F (at 6:00 AM)
Average temperature yesterday: 44 °F

Past Weeks' High & Low Weather Summary

 TemperatureHumidityPressure
High67 °F (Apr 11, 3:00 PM)98% (Apr 5, 3:00 AM)30.54 "Hg (Apr 5, 3:00 AM)
Low28 °F (Apr 10, 6:00 AM)21% (Apr 9, 4:00 PM)29.82 "Hg (Apr 16, 8:00 AM)
Average44 °F68%30.14 "Hg
* Reported Apr 3 4:00 AM — Apr 18 4:00 AM, Kielce, Weather by CustomWeather, © 2015

Note: Actual official high and low records may vary slightly from our data, if they occured in-between our weather recording intervals... More about our weather records

Advertising

Kielce weather history for previous 24 hours

 ConditionsComfort  
Time TempWeatherWind HumidityBarometerVisibility
4:00 AM
Sat, Apr 18
34 °FPassing clouds.1 mph86%29.99 "Hg19 mi
3:00 AM35 °FPassing clouds.2 mph83%29.98 "Hg22 mi
2:00 AM35 °FClear.2 mph78%29.97 "Hg10 mi
1:00 AM36 °FPassing clouds.1 mph79%29.95 "Hg10 mi
12:00 AM38 °FClear.2 mph69%29.93 "Hg12 mi
11:00 PM
Fri, Apr 17
41 °FPassing clouds.5 mph63%29.92 "Hg9 mi
10:00 PM41 °FPassing clouds.1 mph61%29.90 "Hg6 mi
9:00 PM45 °FPassing clouds.2 mph54%29.89 "Hg7 mi
8:00 PM48 °FOvercast.3 mph45%29.87 "Hg12 mi
7:00 PM49 °FOvercast.5 mph41%29.86 "Hg22 mi
6:00 PM51 °FOvercast.6 mph39%29.85 "Hg22 mi
5:00 PM53 °FOvercast.5 mph37%29.84 "Hg22 mi
4:00 PM53 °FOvercast.5 mph39%29.84 "Hg19 mi
3:00 PM52 °FOvercast.6 mph36%29.85 "Hg19 mi
2:00 PM51 °FOvercast.7 mph48%29.87 "Hg19 mi
1:00 PM51 °FOvercast.5 mph48%29.87 "Hg19 mi
12:00 PM51 °FOvercast.5 mph48%29.88 "Hg19 mi
11:00 AM50 °FOvercast.7 mph48%29.88 "Hg17 mi
10:00 AM49 °FOvercast.3 mph56%29.88 "Hg16 mi
9:00 AM46 °FOvercast.1 mph65%29.89 "Hg9 mi
8:00 AM39 °FFog.1 mph96%29.90 "Hg5 mi
7:00 AM33 °FFog.No wind97%29.91 "Hg2 mi
6:00 AM32 °FFog.1 mph96%29.91 "Hg2 mi
Weather by CustomWeather, © 2015

See weather overviewHow to use our weather pages